Погода в Григоровке

Украина / Запорожская область     47°19′27″N   36°17′09″E
темп.,
°C
ветер,
м/с
пор.,
м/с
влажн.,
%
обл.,
%
осадки,
мм/ч
давл.,
гПа
погр.,
м
22 апреля, чт
чт2200:00+7ююз37945 0.3 1020146
03:00+6юз34925 0.3 102081
06:00+6юз23935 0.0 102143
09:00+11ююз34713 0.0 1022557
12:00+15юз445234 0.1 10221634
15:00+14ююз5453100 0.1 10211364
18:00+12ю576578 0.0 1022421
21:00+10ююз3776100 0.0 1023234
23 апреля, пт
пт2300:00+8ююз35885 0.0 102289
03:00+7юз22891 0.0 102233
06:00+7ююз33895 0.0 102247
09:00+13ююз46625 0.0 1022607
12:00+16ююз7849100 0.0 10211574
15:00+15ю895094 0.0 10191167
18:00+13ю7962100 0.0 1018842
21:00+10ю61275100 0.0 1018438
24 апреля, сб
сб2400:00+9ююв3486100 0.2 1017102
03:00+7юз379320 0.2 1016152
06:00+8зсз5895100 1.1 1016548
09:00+9сз57664 1.6 1018935
12:00+12зсз79455 0.0 10181833
15:00+13зсз91237100 0.0 10182639
18:00+10зсз912575 0.0 10191294
21:00+5з410525 0.0 1021239
25 апреля, вс
вс2500:00+4сз345797 0.0 102268
03:00+3з3358100 0.0 102336
06:00+2зсз237069 0.0 102348
09:00+8сз344867 0.0 10231126
12:00+10сз3438100 0.0 10221788
15:00+12сз3335100 0.0 10211825
18:00+11зсз1138100 0.0 10201626
21:00+6ююз4662100 0.0 1021119
26 апреля, пн
пн2600:00+4юз3367100 0.0 102050
03:00+4зюз2367100 0.0 101939
06:00+4з34705 0.0 101973
09:00+10зюз454970 0.0 1018576
12:00+12зюз684470 0.0 10171722
15:00+9сз576731 0.1 1018994
18:00+11зсз57438 0.0 10171892
21:00+6з34525 0.0 101857